date,time,SUV Intensity [MED/Hr],UV Index,Daily total [MED],Since Last [MED]
17/01/2022,00:03:34,0.001,0.0,0.0,0.0
17/01/2022,00:04:34,-0.000,0.0,0.0,0.0
17/01/2022,00:06:43,-0.000,0.0,0.0,0.0
17/01/2022,00:07:33,0.000,0.0,0.0,0.0
17/01/2022,00:09:35,-0.000,0.0,0.0,0.0
17/01/2022,00:10:34,0.001,0.0,0.0,0.0
17/01/2022,00:12:34,0.000,0.0,0.0,0.0
17/01/2022,00:13:33,0.001,0.0,0.0,0.0
17/01/2022,00:15:34,0.000,0.0,0.0,0.0
17/01/2022,00:16:33,0.000,0.0,0.0,0.0
17/01/2022,00:18:35,0.000,0.0,0.0,0.0
17/01/2022,00:19:25,-0.001,0.0,0.0,0.0
17/01/2022,00:21:36,0.000,0.0,0.0,0.0
17/01/2022,00:22:33,0.000,0.0,0.0,0.0
17/01/2022,00:24:35,0.000,0.0,0.0,0.0
17/01/2022,00:25:34,0.000,0.0,0.0,0.0
17/01/2022,00:27:34,0.000,0.0,0.0,0.0
17/01/2022,00:28:33,-0.000,0.0,0.0,0.0
17/01/2022,00:30:34,-0.001,0.0,0.0,0.0
17/01/2022,00:31:34,0.000,0.0,0.0,0.0
17/01/2022,00:33:34,0.000,0.0,0.0,0.0
17/01/2022,00:34:33,0.001,0.0,0.0,0.0
17/01/2022,00:36:34,0.000,0.0,0.0,0.0
17/01/2022,00:37:34,0.000,0.0,0.0,0.0
17/01/2022,00:39:36,-0.001,0.0,0.0,0.0
17/01/2022,00:40:33,0.001,0.0,0.0,0.0
17/01/2022,00:42:34,-0.000,0.0,0.0,0.0
17/01/2022,00:43:33,-0.001,0.0,0.0,0.0
17/01/2022,00:45:35,-0.000,0.0,0.0,0.0
17/01/2022,00:46:34,-0.002,0.0,0.0,0.0
17/01/2022,00:48:35,-0.001,0.0,0.0,0.0
17/01/2022,00:49:42,0.000,0.0,0.0,0.0
17/01/2022,00:51:34,0.000,0.0,0.0,0.0
17/01/2022,00:52:34,0.000,0.0,0.0,0.0
17/01/2022,00:54:34,0.000,0.0,0.0,0.0
17/01/2022,00:55:34,0.001,0.0,0.0,0.0
17/01/2022,00:57:35,0.000,0.0,0.0,0.0
17/01/2022,00:58:33,0.000,0.0,0.0,0.0
17/01/2022,01:00:35,-0.001,0.0,0.0,0.0
17/01/2022,01:01:34,-0.000,0.0,0.0,0.0
17/01/2022,01:03:36,0.000,0.0,0.0,0.0
17/01/2022,01:04:33,0.000,0.0,0.0,0.0
17/01/2022,01:06:34,0.000,0.0,0.0,0.0
17/01/2022,01:07:34,0.000,0.0,0.0,0.0
17/01/2022,01:09:34,0.001,0.0,0.0,0.0
17/01/2022,01:10:34,0.000,0.0,0.0,0.0
17/01/2022,01:12:35,0.000,0.0,0.0,0.0
17/01/2022,01:13:34,0.000,0.0,0.0,0.0
17/01/2022,01:15:43,-0.001,0.0,0.0,0.0
17/01/2022,01:16:33,0.000,0.0,0.0,0.0
17/01/2022,01:18:34,0.000,0.0,0.0,0.0
17/01/2022,01:19:33,-0.000,0.0,0.0,0.0
17/01/2022,01:21:35,0.000,0.0,0.0,0.0
17/01/2022,01:22:33,0.000,0.0,0.0,0.0
17/01/2022,01:24:36,0.001,0.0,0.0,0.0
17/01/2022,01:25:34,0.000,0.0,0.0,0.0
17/01/2022,01:27:35,0.000,0.0,0.0,0.0
17/01/2022,01:28:34,0.000,0.0,0.0,0.0
17/01/2022,01:30:34,0.001,0.0,0.0,0.0
17/01/2022,01:31:34,0.000,0.0,0.0,0.0
17/01/2022,01:33:34,-0.001,0.0,0.0,0.0
17/01/2022,01:34:42,0.000,0.0,0.0,0.0
17/01/2022,01:36:34,0.000,0.0,0.0,0.0
17/01/2022,01:37:34,0.000,0.0,0.0,0.0
17/01/2022,01:39:35,0.000,0.0,0.0,0.0
17/01/2022,01:40:33,0.000,0.0,0.0,0.0
17/01/2022,01:42:35,0.000,0.0,0.0,0.0
17/01/2022,01:43:34,0.001,0.0,0.0,0.0
17/01/2022,01:45:35,0.001,0.0,0.0,0.0
17/01/2022,01:46:34,0.000,0.0,0.0,0.0
17/01/2022,01:48:34,0.001,0.0,0.0,0.0
17/01/2022,01:49:34,0.000,0.0,0.0,0.0
17/01/2022,01:51:35,0.001,0.0,0.0,0.0
17/01/2022,01:52:42,0.001,0.0,0.0,0.0
17/01/2022,01:54:35,-0.000,0.0,0.0,0.0
17/01/2022,01:55:34,0.000,0.0,0.0,0.0
17/01/2022,01:57:35,0.000,0.0,0.0,0.0
17/01/2022,01:58:34,-0.000,0.0,0.0,0.0
17/01/2022,02:00:35,0.000,0.0,0.0,0.0
17/01/2022,02:01:34,0.000,0.0,0.0,0.0
17/01/2022,02:03:35,-0.000,0.0,0.0,0.0
17/01/2022,02:04:35,-0.001,0.0,0.0,0.0
17/01/2022,02:06:35,-0.000,0.0,0.0,0.0
17/01/2022,02:07:34,0.000,0.0,0.0,0.0
17/01/2022,02:09:35,0.000,0.0,0.0,0.0
17/01/2022,02:10:33,0.001,0.0,0.0,0.0
17/01/2022,02:12:34,0.000,0.0,0.0,0.0
17/01/2022,02:13:43,0.001,0.0,0.0,0.0
17/01/2022,02:15:35,0.001,0.0,0.0,0.0
17/01/2022,02:16:34,-0.001,0.0,0.0,0.0
17/01/2022,02:18:35,0.000,0.0,0.0,0.0
17/01/2022,02:19:33,0.000,0.0,0.0,0.0
17/01/2022,02:21:35,-0.000,0.0,0.0,0.0
17/01/2022,02:22:33,0.001,0.0,0.0,0.0
17/01/2022,02:24:43,0.001,0.0,0.0,0.0
17/01/2022,02:25:34,0.001,0.0,0.0,0.0
17/01/2022,02:27:35,0.002,0.0,0.0,0.0
17/01/2022,02:28:33,0.000,0.0,0.0,0.0
17/01/2022,02:30:34,0.001,0.0,0.0,0.0
17/01/2022,02:31:42,0.001,0.0,0.0,0.0
17/01/2022,02:33:34,-0.000,0.0,0.0,0.0
17/01/2022,02:34:42,0.001,0.0,0.0,0.0
17/01/2022,02:36:35,-0.000,0.0,0.0,0.0
17/01/2022,02:37:42,0.001,0.0,0.0,0.0
17/01/2022,02:39:35,0.002,0.0,0.0,0.0
17/01/2022,02:40:34,0.001,0.0,0.0,0.0
17/01/2022,02:42:35,0.000,0.0,0.0,0.0
17/01/2022,02:43:34,0.001,0.0,0.0,0.0
17/01/2022,02:45:43,-0.000,0.0,0.0,0.0
17/01/2022,02:46:33,0.000,0.0,0.0,0.0
17/01/2022,02:48:34,0.002,0.0,0.0,0.0
17/01/2022,02:49:34,0.001,0.0,0.0,0.0
17/01/2022,02:51:34,-0.000,0.0,0.0,0.0
17/01/2022,02:52:42,0.001,0.0,0.0,0.0
17/01/2022,02:54:34,0.001,0.0,0.0,0.0
17/01/2022,02:55:35,0.001,0.0,0.0,0.0
17/01/2022,02:57:34,0.001,0.0,0.0,0.0
17/01/2022,02:58:34,0.000,0.0,0.0,0.0
17/01/2022,03:00:34,0.001,0.0,0.0,0.0
17/01/2022,03:01:34,0.001,0.0,0.0,0.0
17/01/2022,03:03:43,0.001,0.0,0.0,0.0
17/01/2022,03:04:34,0.001,0.0,0.0,0.0
17/01/2022,03:06:35,0.001,0.0,0.0,0.0
17/01/2022,03:07:34,0.000,0.0,0.0,0.0
17/01/2022,03:09:35,-0.000,0.0,0.0,0.0
17/01/2022,03:10:34,-0.000,0.0,0.0,0.0
17/01/2022,03:12:35,0.001,0.0,0.0,0.0
17/01/2022,03:13:33,0.001,0.0,0.0,0.0
17/01/2022,03:15:35,0.001,0.0,0.0,0.0
17/01/2022,03:16:34,0.000,0.0,0.0,0.0
17/01/2022,03:18:34,0.000,0.0,0.0,0.0
17/01/2022,03:19:34,0.001,0.0,0.0,0.0
17/01/2022,03:21:35,0.000,0.0,0.0,0.0
17/01/2022,03:22:33,-0.000,0.0,0.0,0.0
17/01/2022,03:24:44,0.001,0.0,0.0,0.0
17/01/2022,03:25:34,0.002,0.0,0.0,0.0
17/01/2022,03:27:35,0.001,0.0,0.0,0.0
17/01/2022,03:28:33,0.000,0.0,0.0,0.0
17/01/2022,03:30:34,0.000,0.0,0.0,0.0
17/01/2022,03:31:34,0.002,0.0,0.0,0.0
17/01/2022,03:33:34,0.001,0.0,0.0,0.0
17/01/2022,03:34:34,0.001,0.0,0.0,0.0
17/01/2022,03:36:35,-0.000,0.0,0.0,0.0
17/01/2022,03:37:34,0.001,0.0,0.0,0.0
17/01/2022,03:39:34,0.001,0.0,0.0,0.0
17/01/2022,03:40:33,0.001,0.0,0.0,0.0
17/01/2022,03:42:35,0.001,0.0,0.0,0.0
17/01/2022,03:43:34,0.001,0.0,0.0,0.0
17/01/2022,03:45:43,0.000,0.0,0.0,0.0
17/01/2022,03:46:34,0.001,0.0,0.0,0.0
17/01/2022,03:48:35,0.002,0.0,0.0,0.0
17/01/2022,03:49:34,0.001,0.0,0.0,0.0
17/01/2022,03:51:35,0.002,0.0,0.0,0.0
17/01/2022,03:52:34,0.000,0.0,0.0,0.0
17/01/2022,03:54:34,0.001,0.0,0.0,0.0
17/01/2022,03:55:34,0.001,0.0,0.0,0.0
17/01/2022,03:57:35,0.001,0.0,0.0,0.0
17/01/2022,03:58:33,0.000,0.0,0.0,0.0
17/01/2022,04:00:35,0.000,0.0,0.0,0.0
17/01/2022,04:01:34,0.000,0.0,0.0,0.0
17/01/2022,04:03:34,0.001,0.0,0.0,0.0
17/01/2022,04:04:34,0.001,0.0,0.0,0.0
17/01/2022,04:06:35,0.000,0.0,0.0,0.0
17/01/2022,04:07:33,0.001,0.0,0.0,0.0
17/01/2022,04:09:36,0.001,0.0,0.0,0.0
17/01/2022,04:10:34,0.000,0.0,0.0,0.0
17/01/2022,04:12:35,0.000,0.0,0.0,0.0
17/01/2022,04:13:33,0.000,0.0,0.0,0.0
17/01/2022,04:15:34,0.000,0.0,0.0,0.0
17/01/2022,04:16:34,0.001,0.0,0.0,0.0
17/01/2022,04:18:34,0.001,0.0,0.0,0.0
17/01/2022,04:19:42,0.001,0.0,0.0,0.0
17/01/2022,04:21:35,0.001,0.0,0.0,0.0
17/01/2022,04:22:34,-0.000,0.0,0.0,0.0
17/01/2022,04:24:35,0.001,0.0,0.0,0.0
17/01/2022,04:25:34,0.001,0.0,0.0,0.0
17/01/2022,04:28:40,0.001,0.0,0.0,0.0
17/01/2022,04:30:35,0.000,0.0,0.0,0.0
17/01/2022,04:31:34,0.001,0.0,0.0,0.0
17/01/2022,04:33:35,0.001,0.0,0.0,0.0
17/01/2022,04:34:34,0.000,0.0,0.0,0.0
17/01/2022,04:36:35,0.001,0.0,0.0,0.0
17/01/2022,04:37:42,0.000,0.0,0.0,0.0
17/01/2022,04:39:52,-0.000,0.0,0.0,0.0
17/01/2022,04:40:34,0.001,0.0,0.0,0.0
17/01/2022,04:42:36,0.001,0.0,0.0,0.0
17/01/2022,04:43:34,-0.000,0.0,0.0,0.0
17/01/2022,04:45:35,0.001,0.0,0.0,0.0
17/01/2022,04:46:33,0.001,0.0,0.0,0.0
17/01/2022,04:48:44,0.000,0.0,0.0,0.0
17/01/2022,04:49:33,0.001,0.0,0.0,0.0
17/01/2022,04:51:35,0.001,0.0,0.0,0.0
17/01/2022,04:52:34,0.001,0.0,0.0,0.0
17/01/2022,04:54:36,0.001,0.0,0.0,0.0
17/01/2022,04:55:34,-0.000,0.0,0.0,0.0
17/01/2022,04:57:35,0.000,0.0,0.0,0.0
17/01/2022,04:58:34,-0.000,0.0,0.0,0.0
17/01/2022,05:00:35,0.000,0.0,0.0,0.0
17/01/2022,05:01:34,0.000,0.0,0.0,0.0
17/01/2022,05:03:35,0.001,0.0,0.0,0.0
17/01/2022,05:04:34,0.001,0.0,0.0,0.0
17/01/2022,05:06:43,0.001,0.0,0.0,0.0
17/01/2022,05:07:34,0.000,0.0,0.0,0.0
17/01/2022,05:09:34,0.001,0.0,0.0,0.0
17/01/2022,05:10:33,0.001,0.0,0.0,0.0
17/01/2022,05:12:34,0.001,0.0,0.0,0.0
17/01/2022,05:13:34,0.001,0.0,0.0,0.0
17/01/2022,05:15:35,0.001,0.0,0.0,0.0
17/01/2022,05:16:34,0.001,0.0,0.0,0.0
17/01/2022,05:18:34,0.001,0.0,0.0,0.0
17/01/2022,05:19:34,0.001,0.0,0.0,0.0
17/01/2022,05:21:35,0.001,0.0,0.0,0.0
17/01/2022,05:22:34,0.002,0.0,0.0,0.0
17/01/2022,05:24:44,0.001,0.0,0.0,0.0
17/01/2022,05:25:34,0.001,0.0,0.0,0.0
17/01/2022,05:27:35,-0.000,0.0,0.0,0.0
17/01/2022,05:28:34,-0.000,0.0,0.0,0.0
17/01/2022,05:30:34,0.001,0.0,0.0,0.0
17/01/2022,05:31:34,0.000,0.0,0.0,0.0
17/01/2022,05:33:35,0.001,0.0,0.0,0.0
17/01/2022,05:34:34,0.001,0.0,0.0,0.0
17/01/2022,05:36:35,0.002,0.0,0.0,0.0
17/01/2022,05:37:35,0.000,0.0,0.0,0.0
17/01/2022,05:39:35,0.002,0.0,0.0,0.0
17/01/2022,05:40:34,0.001,0.0,0.0,0.0
17/01/2022,05:42:35,0.001,0.0,0.0,0.0
17/01/2022,05:43:34,0.001,0.0,0.0,0.0
17/01/2022,05:45:35,0.001,0.0,0.0,0.0
17/01/2022,05:46:34,0.001,0.0,0.0,0.0
17/01/2022,05:48:35,0.001,0.0,0.0,0.0
17/01/2022,05:49:34,-0.000,0.0,0.0,0.0
17/01/2022,05:51:35,0.001,0.0,0.0,0.0
17/01/2022,05:52:34,0.001,0.0,0.0,0.0
17/01/2022,05:54:35,0.000,0.0,0.0,0.0
17/01/2022,05:55:27,0.001,0.0,0.0,0.0
17/01/2022,05:57:36,0.001,0.0,0.0,0.0
17/01/2022,05:58:34,0.001,0.0,0.0,0.0
17/01/2022,06:00:35,0.001,0.0,0.0,0.0
17/01/2022,06:01:43,0.001,0.0,0.0,0.0
17/01/2022,06:03:43,0.001,0.0,0.0,0.0
17/01/2022,06:04:34,0.001,0.0,0.0,0.0
17/01/2022,06:06:35,0.001,0.0,0.0,0.0
17/01/2022,06:07:42,0.001,0.0,0.0,0.0
17/01/2022,06:09:35,0.001,0.0,0.0,0.0
17/01/2022,06:10:34,-0.000,0.0,0.0,0.0
17/01/2022,06:12:35,0.001,0.0,0.0,0.0
17/01/2022,06:13:34,0.001,0.0,0.0,0.0
17/01/2022,06:15:35,0.001,0.0,0.0,0.0
17/01/2022,06:16:35,0.001,0.0,0.0,0.0
17/01/2022,06:18:35,0.002,0.0,0.0,0.0
17/01/2022,06:19:42,0.000,0.0,0.0,0.0
17/01/2022,06:21:35,0.001,0.0,0.0,0.0
17/01/2022,06:22:34,0.000,0.0,0.0,0.0
17/01/2022,06:24:35,0.001,0.0,0.0,0.0
17/01/2022,06:25:34,0.001,0.0,0.0,0.0
17/01/2022,06:27:35,0.002,0.0,0.0,0.0
17/01/2022,06:28:34,0.001,0.0,0.0,0.0
17/01/2022,06:30:35,0.002,0.0,0.0,0.0
17/01/2022,06:31:34,0.001,0.0,0.0,0.0
17/01/2022,06:33:35,0.001,0.0,0.0,0.0
17/01/2022,06:34:34,-0.000,0.0,0.0,0.0
17/01/2022,06:36:35,0.002,0.0,0.0,0.0
17/01/2022,06:37:43,0.000,0.0,0.0,0.0
17/01/2022,06:39:35,0.001,0.0,0.0,0.0
17/01/2022,06:40:34,-0.000,0.0,0.0,0.0
17/01/2022,06:42:35,0.001,0.0,0.0,0.0
17/01/2022,06:43:34,0.001,0.0,0.0,0.0
17/01/2022,06:45:35,0.001,0.0,0.0,0.0
17/01/2022,06:46:34,0.001,0.0,0.0,0.0
17/01/2022,06:48:52,-0.000,0.0,0.0,0.0
17/01/2022,06:49:34,0.001,0.0,0.0,0.0
17/01/2022,06:51:36,0.001,0.0,0.0,0.0
17/01/2022,06:52:34,0.001,0.0,0.0,0.0
17/01/2022,06:54:35,0.001,0.0,0.0,0.0
17/01/2022,06:55:34,0.001,0.0,0.0,0.0
17/01/2022,06:57:36,0.001,0.0,0.0,0.0
17/01/2022,06:58:43,0.001,0.0,0.0,0.0
17/01/2022,07:00:43,0.001,0.0,0.0,0.0
17/01/2022,07:01:34,0.000,0.0,0.0,0.0
17/01/2022,07:03:36,0.000,0.0,0.0,0.0
17/01/2022,07:04:34,0.001,0.0,0.0,0.0
17/01/2022,07:06:35,0.002,0.0,0.0,0.0
17/01/2022,07:07:34,0.001,0.0,0.0,0.0
17/01/2022,07:09:35,0.001,0.0,0.0,0.0
17/01/2022,07:10:34,0.001,0.0,0.0,0.0
17/01/2022,07:12:35,0.000,0.0,0.0,0.0
17/01/2022,07:13:42,0.002,0.0,0.0,0.0
17/01/2022,07:15:35,0.001,0.0,0.0,0.0
17/01/2022,07:16:34,0.001,0.0,0.0,0.0
17/01/2022,07:18:26,0.001,0.0,0.0,0.0
17/01/2022,07:19:36,0.001,0.0,0.0,0.0
17/01/2022,07:21:35,0.001,0.0,0.0,0.0
17/01/2022,07:22:34,0.001,0.0,0.0,0.0
17/01/2022,07:24:35,0.002,0.0,0.0,0.0
17/01/2022,07:25:35,0.001,0.0,0.0,0.0
17/01/2022,07:27:35,0.001,0.0,0.0,0.0
17/01/2022,07:28:34,0.001,0.0,0.0,0.0
17/01/2022,07:30:35,0.001,0.0,0.0,0.0
17/01/2022,07:31:34,0.001,0.0,0.0,0.0
17/01/2022,07:33:35,0.001,0.0,0.0,0.0
17/01/2022,07:34:42,0.001,0.0,0.0,0.0
17/01/2022,07:36:37,0.001,0.0,0.0,0.0
17/01/2022,07:37:34,0.001,0.0,0.0,0.0
17/01/2022,07:39:36,0.001,0.0,0.0,0.0
17/01/2022,07:40:34,0.002,0.0,0.0,0.0
17/01/2022,07:42:35,0.002,0.0,0.0,0.0
17/01/2022,07:43:34,0.000,0.0,0.0,0.0
17/01/2022,07:45:35,0.002,0.0,0.0,0.0
17/01/2022,07:46:34,0.001,0.0,0.0,0.0
17/01/2022,07:48:35,0.001,0.0,0.0,0.0
17/01/2022,07:49:35,0.001,0.0,0.0,0.0
17/01/2022,07:51:35,0.002,0.0,0.0,0.0
17/01/2022,07:52:36,0.002,0.0,0.0,0.0
17/01/2022,07:54:35,0.002,0.0,0.0,0.0
17/01/2022,07:55:42,0.002,0.0,0.0,0.0
17/01/2022,07:57:35,0.002,0.0,0.0,0.0
17/01/2022,07:58:34,0.001,0.0,0.0,0.0
17/01/2022,08:00:35,0.003,0.0,0.0,0.0
17/01/2022,08:01:34,0.003,0.0,0.0,0.0
17/01/2022,08:03:36,0.003,0.0,0.0,0.0
17/01/2022,08:04:34,0.003,0.0,0.0,0.0
17/01/2022,08:06:35,0.003,0.0,0.0,0.0
17/01/2022,08:07:34,0.004,0.0,0.0,0.0
17/01/2022,08:09:35,0.004,0.0,0.0,0.0
17/01/2022,08:10:42,0.005,0.0,0.0,0.0
17/01/2022,08:12:36,0.005,0.0,0.0,0.0
17/01/2022,08:13:34,0.005,0.0,0.0,0.0
17/01/2022,08:15:35,0.005,0.0,0.0,0.0
17/01/2022,08:16:28,0.006,0.0,0.0,0.0
17/01/2022,08:18:36,0.006,0.0,0.0,0.0
17/01/2022,08:19:34,0.006,0.0,0.0,0.0
17/01/2022,08:21:43,0.007,0.0,0.0,0.0
17/01/2022,08:22:34,0.007,0.0,0.0,0.0
17/01/2022,08:24:35,0.008,0.0,0.001,0.001
17/01/2022,08:25:34,0.008,0.0,0.001,0.0
17/01/2022,08:27:35,0.009,0.0,0.001,0.0
17/01/2022,08:28:34,0.009,0.0,0.001,0.0
17/01/2022,08:30:35,0.011,0.0,0.002,0.001
17/01/2022,08:31:34,0.010,0.0,0.002,0.0
17/01/2022,08:33:35,0.011,0.0,0.002,0.0
17/01/2022,08:34:35,0.011,0.0,0.002,0.0
17/01/2022,08:36:43,0.012,0.0,0.003,0.001
17/01/2022,08:37:34,0.012,0.0,0.003,0.0
17/01/2022,08:39:35,0.014,0.0,0.003,0.0
17/01/2022,08:40:35,0.014,0.0,0.004,0.001
17/01/2022,08:42:35,0.015,0.0,0.004,0.0
17/01/2022,08:43:34,0.015,0.0,0.004,0.0
17/01/2022,08:45:35,0.015,0.0,0.005,0.001
17/01/2022,08:46:34,0.017,0.0,0.005,0.0
17/01/2022,08:48:35,0.017,0.0,0.006,0.001
17/01/2022,08:49:34,0.017,0.0,0.006,0.0
17/01/2022,08:51:36,0.019,0.0,0.007,0.001
17/01/2022,08:52:43,0.020,0.0,0.007,0.0
17/01/2022,08:54:35,0.021,0.0,0.008,0.001
17/01/2022,08:55:35,0.021,0.0,0.008,0.0
17/01/2022,08:57:35,0.022,0.0,0.009,0.001
17/01/2022,08:58:34,0.023,0.0,0.009,-0.0
17/01/2022,09:00:35,0.023,0.0,0.01,0.001
17/01/2022,09:01:35,0.026,0.0,0.01,0.0
17/01/2022,09:03:35,0.026,0.0,0.011,0.001
17/01/2022,09:04:34,0.027,0.0,0.011,-0.0
17/01/2022,09:06:37,0.028,0.0,0.012,0.001
17/01/2022,09:07:43,0.029,0.0,0.013,0.001
17/01/2022,09:09:36,0.030,0.0,0.014,0.001
17/01/2022,09:10:43,0.031,0.0,0.014,0.0
17/01/2022,09:12:35,0.033,0.0,0.015,0.001
17/01/2022,09:13:35,0.033,0.0,0.016,0.001
17/01/2022,09:15:36,0.035,0.0,0.017,0.001
17/01/2022,09:16:34,0.036,0.0,0.018,0.001
17/01/2022,09:18:35,0.037,0.0,0.019,0.001
17/01/2022,09:19:35,0.038,0.0,0.02,0.001
17/01/2022,09:21:35,0.040,0.0,0.021,0.001
17/01/2022,09:22:34,0.041,0.0,0.021,0.0
17/01/2022,09:24:35,0.042,0.0,0.023,0.002
17/01/2022,09:25:43,0.043,0.0,0.024,0.001
17/01/2022,09:27:35,0.045,0.0,0.025,0.001
17/01/2022,09:28:35,0.046,0.0,0.026,0.001
17/01/2022,09:30:35,0.048,0.0,0.027,0.001
17/01/2022,09:31:35,0.048,0.0,0.028,0.001
17/01/2022,09:33:35,0.051,0.0,0.03,0.002
17/01/2022,09:34:35,0.051,0.0,0.031,0.001
17/01/2022,09:36:36,0.053,0.0,0.032,0.001
17/01/2022,09:37:34,0.055,0.0,0.033,0.001
17/01/2022,09:39:37,0.057,0.0,0.035,0.002
17/01/2022,09:40:34,0.058,0.0,0.036,0.001
17/01/2022,09:42:36,0.060,0.0,0.038,0.002
17/01/2022,09:43:34,0.061,0.0,0.039,0.001
17/01/2022,09:45:35,0.063,0.0,0.041,0.002
17/01/2022,09:46:35,0.064,0.0,0.042,0.001
17/01/2022,09:48:36,0.066,0.0,0.044,0.002
17/01/2022,09:49:43,0.067,0.0,0.046,0.002
17/01/2022,09:51:35,0.069,0.0,0.048,0.002
17/01/2022,09:52:35,0.070,0.0,0.049,0.001
17/01/2022,09:54:35,0.072,0.0,0.051,0.002
17/01/2022,09:55:34,0.074,0.0,0.053,0.002
17/01/2022,09:57:35,0.076,0.0,0.055,0.002
17/01/2022,09:58:34,0.076,0.0,0.056,0.001
17/01/2022,10:00:35,0.079,0.0,0.059,0.003
17/01/2022,10:01:35,0.081,0.0,0.06,0.001
17/01/2022,10:03:35,0.082,0.0,0.063,0.003
17/01/2022,10:04:43,0.084,0.0,0.065,0.002
17/01/2022,10:06:35,0.087,0.0,0.067,0.002
17/01/2022,10:07:35,0.088,0.0,0.069,0.002
17/01/2022,10:09:37,0.089,0.0,0.072,0.003
17/01/2022,10:10:35,0.091,0.0,0.073,0.001
17/01/2022,10:12:36,0.093,0.0,0.076,0.003
17/01/2022,10:13:34,0.094,0.0,0.078,0.002
17/01/2022,10:15:44,0.097,0.0,0.081,0.003
17/01/2022,10:16:34,0.098,0.0,0.082,0.001
17/01/2022,10:18:44,0.100,0.0,0.086,0.004
17/01/2022,10:19:34,0.100,0.0,0.087,0.001
17/01/2022,10:21:36,0.104,0.0,0.091,0.004
17/01/2022,10:22:35,0.105,0.0,0.093,0.002
17/01/2022,10:24:35,0.106,0.0,0.096,0.003
17/01/2022,10:25:34,0.109,0.0,0.098,0.002
17/01/2022,10:27:35,0.111,0.0,0.102,0.004
17/01/2022,10:28:35,0.112,0.0,0.103,0.001
17/01/2022,10:30:35,0.115,0.0,0.107,0.004
17/01/2022,10:31:35,0.117,0.0,0.109,0.002
17/01/2022,10:33:35,0.118,0.0,0.113,0.004
17/01/2022,10:34:42,0.120,0.0,0.115,0.002
17/01/2022,10:36:35,0.122,0.0,0.119,0.004
17/01/2022,10:37:35,0.123,0.0,0.121,0.002
17/01/2022,10:39:38,0.125,0.0,0.125,0.004
17/01/2022,10:40:34,0.126,0.0,0.127,0.002
17/01/2022,10:42:35,0.128,0.0,0.132,0.005
17/01/2022,10:43:35,0.129,0.0,0.134,0.002
17/01/2022,10:45:44,0.132,0.0,0.138,0.004
17/01/2022,10:46:34,0.134,0.0,0.14,0.002
17/01/2022,10:48:35,0.136,0.0,0.145,0.005
17/01/2022,10:49:34,0.136,0.0,0.147,0.002
17/01/2022,10:51:35,0.139,0.0,0.152,0.005
17/01/2022,10:52:34,0.139,0.0,0.154,0.002
17/01/2022,10:54:35,0.142,0.0,0.159,0.005
17/01/2022,10:55:43,0.143,0.0,0.161,0.002
17/01/2022,10:57:36,0.146,0.0,0.166,0.005
17/01/2022,10:58:35,0.147,0.0,0.168,0.002
17/01/2022,11:00:36,0.148,0.0,0.173,0.005
17/01/2022,11:01:34,0.150,0.0,0.176,0.003
17/01/2022,11:03:35,0.152,0.0,0.181,0.005
17/01/2022,11:04:35,0.151,0.0,0.183,0.002
17/01/2022,11:06:44,0.155,0.0,0.189,0.006
17/01/2022,11:07:36,0.156,0.0,0.191,0.002
17/01/2022,11:09:36,0.158,0.0,0.196,0.005
17/01/2022,11:10:43,0.159,0.0,0.199,0.003
17/01/2022,11:12:43,0.161,0.0,0.205,0.006
17/01/2022,11:13:35,0.163,0.0,0.207,0.002
17/01/2022,11:15:35,0.164,0.0,0.212,0.005
17/01/2022,11:16:34,0.165,0.0,0.215,0.003
17/01/2022,11:18:35,0.166,0.0,0.221,0.006
17/01/2022,11:19:35,0.167,0.0,0.223,0.002
17/01/2022,11:21:35,0.169,0.0,0.229,0.006
17/01/2022,11:22:35,0.168,0.0,0.232,0.003
17/01/2022,11:24:35,0.171,0.0,0.237,0.005
17/01/2022,11:25:35,0.173,0.0,0.24,0.003
17/01/2022,11:27:36,0.175,0.0,0.246,0.006
17/01/2022,11:28:42,0.174,0.0,0.249,0.003
17/01/2022,11:30:35,0.177,0.0,0.255,0.006
17/01/2022,11:31:43,0.177,0.0,0.258,0.003
17/01/2022,11:33:35,0.179,0.0,0.264,0.006
17/01/2022,11:34:35,0.179,0.0,0.267,0.003
17/01/2022,11:36:35,0.181,0.0,0.273,0.006
17/01/2022,11:37:35,0.182,0.0,0.276,0.003
17/01/2022,11:39:44,0.183,0.0,0.282,0.006
17/01/2022,11:40:34,0.183,0.0,0.285,0.003
17/01/2022,11:42:44,0.185,0.0,0.291,0.006
17/01/2022,11:43:35,0.185,0.0,0.294,0.003
17/01/2022,11:45:36,0.186,0.0,0.3,0.006
17/01/2022,11:46:35,0.188,0.0,0.303,0.003
17/01/2022,11:48:36,0.188,0.0,0.31,0.007
17/01/2022,11:49:34,0.189,0.0,0.313,0.003
17/01/2022,11:51:36,0.189,0.0,0.319,0.006
17/01/2022,11:52:34,0.189,0.0,0.322,0.003
17/01/2022,11:54:35,0.190,0.0,0.329,0.007
17/01/2022,11:55:35,0.191,0.0,0.332,0.003
17/01/2022,11:57:35,0.191,0.0,0.338,0.006
17/01/2022,11:58:34,0.191,0.0,0.341,0.003
17/01/2022,12:00:36,0.192,0.0,0.348,0.007
17/01/2022,12:01:34,0.193,0.0,0.351,0.003
17/01/2022,12:03:35,0.193,0.0,0.357,0.006
17/01/2022,12:04:42,0.194,0.0,0.361,0.004
17/01/2022,12:06:37,0.194,0.0,0.367,0.006
17/01/2022,12:07:36,0.194,0.0,0.37,0.003
17/01/2022,12:09:37,0.195,0.0,0.377,0.007
17/01/2022,12:10:36,0.194,0.0,0.38,0.003
17/01/2022,12:12:36,0.195,0.0,0.387,0.007
17/01/2022,12:13:35,0.195,0.0,0.39,0.003
17/01/2022,12:15:44,0.195,0.0,0.397,0.007
17/01/2022,12:16:35,0.196,0.0,0.399,0.002
17/01/2022,12:18:35,0.194,0.0,0.406,0.007
17/01/2022,12:19:34,0.196,0.0,0.409,0.003
17/01/2022,12:21:35,0.194,0.0,0.416,0.007
17/01/2022,12:22:35,0.194,0.0,0.419,0.003
17/01/2022,12:24:36,0.193,0.0,0.425,0.006
17/01/2022,12:25:35,0.194,0.0,0.429,0.004
17/01/2022,12:27:35,0.194,0.0,0.435,0.006
17/01/2022,12:28:34,0.194,0.0,0.438,0.003
17/01/2022,12:30:36,0.192,0.0,0.445,0.007
17/01/2022,12:31:34,0.193,0.0,0.448,0.003
17/01/2022,12:33:38,0.192,0.0,0.455,0.007
17/01/2022,12:34:43,0.192,0.0,0.458,0.003
17/01/2022,12:36:36,0.192,0.0,0.464,0.006
17/01/2022,12:37:35,0.192,0.0,0.467,0.003
17/01/2022,12:39:36,0.191,0.0,0.474,0.007
17/01/2022,12:40:34,0.191,0.0,0.477,0.003
17/01/2022,12:42:35,0.190,0.0,0.483,0.006
17/01/2022,12:43:43,0.189,0.0,0.487,0.004
17/01/2022,12:45:36,0.188,0.0,0.493,0.006
17/01/2022,12:46:35,0.188,0.0,0.496,0.003
17/01/2022,12:48:35,0.187,0.0,0.502,0.006
17/01/2022,12:49:35,0.186,0.0,0.505,0.003
17/01/2022,12:51:36,0.186,0.0,0.511,0.006
17/01/2022,12:52:35,0.185,0.0,0.514,0.003
17/01/2022,12:54:44,0.184,0.0,0.521,0.007
17/01/2022,12:55:34,0.184,0.0,0.524,0.003
17/01/2022,12:57:36,0.182,0.0,0.53,0.006
17/01/2022,12:58:35,0.181,0.0,0.533,0.003
17/01/2022,13:00:36,0.180,0.0,0.539,0.006
17/01/2022,13:01:35,0.179,0.0,0.542,0.003
17/01/2022,13:03:36,0.178,0.0,0.548,0.006
17/01/2022,13:04:34,0.177,0.0,0.551,0.003
17/01/2022,13:06:36,0.175,0.0,0.557,0.006
17/01/2022,13:07:36,0.174,0.0,0.559,0.002
17/01/2022,13:09:35,0.174,0.0,0.565,0.006
17/01/2022,13:10:34,0.173,0.0,0.568,0.003
17/01/2022,13:12:35,0.172,0.0,0.574,0.006
17/01/2022,13:13:35,0.170,0.0,0.577,0.003
17/01/2022,13:15:35,0.168,0.0,0.582,0.005
17/01/2022,13:16:43,0.167,0.0,0.586,0.004
17/01/2022,13:18:36,0.166,0.0,0.591,0.005
17/01/2022,13:19:34,0.164,0.0,0.593,0.002
17/01/2022,13:21:36,0.164,0.0,0.599,0.006
17/01/2022,13:22:35,0.161,0.0,0.602,0.003
17/01/2022,13:24:36,0.160,0.0,0.607,0.005
17/01/2022,13:25:34,0.159,0.0,0.61,0.003
17/01/2022,13:27:35,0.157,0.0,0.615,0.005
17/01/2022,13:28:34,0.156,0.0,0.617,0.002
17/01/2022,13:30:36,0.154,0.0,0.623,0.006
17/01/2022,13:31:35,0.153,0.0,0.625,0.002
17/01/2022,13:33:36,0.151,0.0,0.63,0.005
17/01/2022,13:34:34,0.150,0.0,0.633,0.003
17/01/2022,13:36:36,0.148,0.0,0.638,0.005
17/01/2022,13:37:35,0.146,0.0,0.64,0.002
17/01/2022,13:39:35,0.144,0.0,0.645,0.005
17/01/2022,13:40:35,0.144,0.0,0.647,0.002
17/01/2022,13:42:44,0.141,0.0,0.653,0.006
17/01/2022,13:43:35,0.140,0.0,0.654,0.001
17/01/2022,13:45:44,0.136,0.0,0.659,0.005
17/01/2022,13:46:34,0.136,0.0,0.661,0.002
17/01/2022,13:48:36,0.134,0.0,0.666,0.005
17/01/2022,13:49:35,0.132,0.0,0.668,0.002
17/01/2022,13:51:36,0.130,0.0,0.673,0.005
17/01/2022,13:52:34,0.129,0.0,0.675,0.002
17/01/2022,13:54:36,0.127,0.0,0.679,0.004
17/01/2022,13:55:35,0.125,0.0,0.681,0.002
17/01/2022,13:57:35,0.122,0.0,0.685,0.004
17/01/2022,13:58:35,0.122,0.0,0.687,0.002
17/01/2022,14:00:35,0.119,0.0,0.691,0.004
17/01/2022,14:01:35,0.118,0.0,0.693,0.002
17/01/2022,14:03:38,0.115,0.0,0.697,0.004
17/01/2022,14:04:35,0.115,0.0,0.699,0.002
17/01/2022,14:06:36,0.112,0.0,0.703,0.004
17/01/2022,14:07:35,0.111,0.0,0.705,0.002
17/01/2022,14:09:36,0.109,0.0,0.708,0.003
17/01/2022,14:10:34,0.107,0.0,0.71,0.002
17/01/2022,14:12:36,0.105,0.0,0.714,0.004
17/01/2022,14:13:35,0.104,0.0,0.715,0.001
17/01/2022,14:15:36,0.103,0.0,0.719,0.004
17/01/2022,14:16:34,0.100,0.0,0.721,0.002
17/01/2022,14:18:36,0.097,0.0,0.724,0.003
17/01/2022,14:19:35,0.096,0.0,0.725,0.001
17/01/2022,14:21:36,0.095,0.0,0.729,0.004
17/01/2022,14:22:43,0.093,0.0,0.731,0.002
17/01/2022,14:24:36,0.091,0.0,0.733,0.002
17/01/2022,14:25:34,0.090,0.0,0.735,0.002
17/01/2022,14:27:38,0.087,0.0,0.738,0.003
17/01/2022,14:28:34,0.086,0.0,0.739,0.001
17/01/2022,14:39:53,0.074,0.0,0.754,0.015
17/01/2022,14:40:35,0.073,0.0,0.755,0.001
17/01/2022,14:42:44,0.070,0.0,0.758,0.003
17/01/2022,14:43:35,0.069,0.0,0.759,0.001
17/01/2022,14:45:36,0.066,0.0,0.761,0.002
17/01/2022,14:46:34,0.065,0.0,0.762,0.001
17/01/2022,14:48:49,0.064,0.0,0.764,0.002
17/01/2022,14:49:36,0.062,0.0,0.765,0.001
17/01/2022,14:51:36,0.060,0.0,0.767,0.002
17/01/2022,14:52:35,0.059,0.0,0.768,0.001
17/01/2022,14:54:35,0.057,0.0,0.77,0.002
17/01/2022,14:55:35,0.057,0.0,0.771,0.001
17/01/2022,14:57:36,0.055,0.0,0.773,0.002
17/01/2022,14:58:35,0.053,0.0,0.774,0.001
17/01/2022,15:00:36,0.052,0.0,0.776,0.002
17/01/2022,15:01:35,0.050,0.0,0.776,0.0
17/01/2022,15:03:37,0.048,0.0,0.778,0.002
17/01/2022,15:04:34,0.047,0.0,0.779,0.001
17/01/2022,15:06:36,0.045,0.0,0.78,0.001
17/01/2022,15:07:34,0.044,0.0,0.781,0.001
17/01/2022,15:09:36,0.042,0.0,0.783,0.002
17/01/2022,15:10:34,0.041,0.0,0.783,0.0
17/01/2022,15:12:36,0.040,0.0,0.785,0.002
17/01/2022,15:13:35,0.039,0.0,0.785,0.0